TimeHST,TemperatureF,Dew PointF,Humidity,Sea Level PressureIn,VisibilityMPH,Wind Direction,Wind SpeedMPH,Gust SpeedMPH,PrecipitationIn,Events,Conditions,WindDirDegrees,DateUTC
12:53 AM,77.0,70.0,79,30.02,10.0,ENE,13.8,23.0,0.00,,Overcast,60,2013-09-01 10:53:00
1:53 AM,78.1,69.1,74,30.02,10.0,ENE,16.1,-,0.00,,Scattered Clouds,70,2013-09-01 11:53:00
2:53 AM,78.1,70.0,76,30.00,10.0,ENE,17.3,-,0.00,,Mostly Cloudy,60,2013-09-01 12:53:00
3:53 AM,78.1,69.1,74,30.00,10.0,ENE,17.3,-,N/A,,Scattered Clouds,60,2013-09-01 13:53:00
4:53 AM,78.1,69.1,74,30.00,10.0,ENE,15.0,-,N/A,,Mostly Cloudy,60,2013-09-01 14:53:00
5:53 AM,77.0,69.1,76,30.01,10.0,NE,12.7,-,N/A,,Mostly Cloudy,40,2013-09-01 15:53:00
6:39 AM,77.0,69.8,78,30.02,10.0,NE,13.8,-,N/A,,Mostly Cloudy,40,2013-09-01 16:39:00
6:53 AM,78.1,70.0,76,30.02,10.0,ENE,12.7,-,N/A,,Mostly Cloudy,60,2013-09-01 16:53:00
7:22 AM,78.8,69.8,74,30.03,10.0,ENE,23.0,-,0.00,,Scattered Clouds,70,2013-09-01 17:22:00
7:53 AM,79.0,69.1,72,30.04,10.0,ENE,19.6,-,0.00,,Scattered Clouds,70,2013-09-01 17:53:00
8:53 AM,81.0,66.9,62,30.05,10.0,East,21.9,26.5,N/A,,Overcast,80,2013-09-01 18:53:00
9:53 AM,82.9,68.0,60,30.05,10.0,ENE,15.0,-,N/A,,Mostly Cloudy,70,2013-09-01 19:53:00
10:53 AM,84.9,68.0,57,30.05,10.0,East,16.1,-,N/A,,Scattered Clouds,80,2013-09-01 20:53:00
11:53 AM,86.0,66.0,51,30.04,10.0,ENE,13.8,-,N/A,,Clear,60,2013-09-01 21:53:00
12:53 PM,84.9,66.9,55,30.03,10.0,ENE,13.8,-,N/A,,Clear,70,2013-09-01 22:53:00
1:53 PM,86.0,66.9,53,30.00,10.0,NE,11.5,-,N/A,,Clear,50,2013-09-01 23:53:00
2:53 PM,84.9,69.1,59,29.99,10.0,ENE,12.7,-,N/A,,Partly Cloudy,60,2013-09-02 00:53:00
3:53 PM,84.0,66.9,56,29.99,10.0,NE,11.5,-,N/A,,Partly Cloudy,50,2013-09-02 01:53:00
4:53 PM,82.0,70.0,67,29.98,10.0,ENE,16.1,-,N/A,,Mostly Cloudy,60,2013-09-02 02:53:00
5:53 PM,80.1,66.9,64,29.99,10.0,ENE,18.4,-,N/A,,Overcast,60,2013-09-02 03:53:00
6:53 PM,79.0,70.0,74,30.00,10.0,ENE,16.1,-,N/A,,Overcast,70,2013-09-02 04:53:00
7:53 PM,79.0,70.0,74,30.01,10.0,ENE,13.8,-,N/A,,Overcast,60,2013-09-02 05:53:00
8:53 PM,79.0,71.1,77,30.03,10.0,ENE,16.1,-,N/A,,Overcast,70,2013-09-02 06:53:00
9:53 PM,79.0,69.1,72,30.04,10.0,ENE,16.1,-,N/A,,Overcast,70,2013-09-02 07:53:00
10:53 PM,79.0,68.0,69,30.04,10.0,East,17.3,-,N/A,,Scattered Clouds,90,2013-09-02 08:53:00
11:53 PM,79.0,68.0,69,30.04,10.0,East,16.1,24.2,N/A,,Partly Cloudy,80,2013-09-02 09:53:00